Flag for China Weather past 2 weeks in Fushun, Liaoning, China

Now
64 °F

Fog.


Feels Like: 64 °F
Forecast: 64 / 84 °F
Wind: 3 mph from Northeast

Location: Shenyang / Taoxian

Current Time: Sep 1, 2015 at 4:51:18 AM

Latest Report: Sep 1, 2015 at 4:30 AM


Visibility: 2 mi

Pressure: 29.89 "Hg

Humidity: 94%

Dew point: 63 °F

Location of FushunLocation

Historic Weather in Fushun — Graph

°F

Fushun temperature yesterday

Maximum temperature yesterday: 84 °F (at 1:00 PM)
Minimum temperature yesterday: 64 °F (at 1:00 AM)
Average temperature yesterday: 74 °F

Past Weeks' High & Low Weather Summary

 TemperatureHumidityPressure
High90 °F (Aug 18, 1:00 PM)100% (Aug 22, 2:30 AM)29.92 "Hg (Aug 22, 2:30 AM)
Low59 °F (Aug 29, 5:00 AM)39% (Aug 26, 2:00 PM)29.59 "Hg (Aug 21, 3:00 PM)
Average73 °F76%29.78 "Hg
* Reported Aug 17 3:00 AM — Sep 1 3:30 AM, Fushun, Weather by CustomWeather, © 2015

Note: Actual official high and low records may vary slightly from our data, if they occured in-between our weather recording intervals... More about our weather records

Advertising

Fushun weather history for previous 24 hours

 ConditionsComfort  
Time TempWeatherWind HumidityBarometerVisibility
3:30 AM
Tue, Sep 1
64 °FFog.6 mph100%29.89 "Hg3 mi
3:00 AM66 °FFog.3 mph94%29.89 "Hg2 mi
2:30 AM66 °FFog.6 mph94%29.89 "Hg2 mi
2:00 AM66 °FFog.6 mph94%29.89 "Hg2 mi
1:30 AM68 °FPassing clouds.6 mph94%29.89 "Hg4 mi
1:00 AM68 °FPassing clouds.6 mph88%29.89 "Hg4 mi
12:30 AM68 °FPassing clouds.6 mph88%29.92 "Hg4 mi
12:00 AM70 °FPassing clouds.6 mph83%29.92 "Hg5 mi
11:30 PM
Mon, Aug 31
68 °FPassing clouds.1 mph88%29.92 "HgN/A
11:00 PM70 °FPassing clouds.3 mph88%29.92 "HgN/A
10:30 PM70 °FPassing clouds.3 mph83%29.92 "HgN/A
10:00 PM72 °FPassing clouds.3 mph83%29.92 "HgN/A
9:30 PM72 °FPassing clouds.6 mph78%29.92 "HgN/A
9:00 PM73 °FPassing clouds.6 mph74%29.92 "HgN/A
8:30 PM73 °FPassing clouds.3 mph74%29.92 "HgN/A
8:00 PM73 °FPassing clouds.3 mph74%29.92 "HgN/A
7:30 PM73 °FPassing clouds.3 mph74%29.92 "HgN/A
7:00 PM75 °FPassing clouds.3 mph65%29.89 "HgN/A
6:30 PM77 °FPassing clouds.6 mph61%29.89 "HgN/A
6:00 PM77 °FPartly sunny.6 mph65%29.89 "HgN/A
5:30 PM79 °FPartly sunny.6 mph58%29.89 "HgN/A
5:00 PM79 °FPartly sunny.6 mph58%29.86 "HgN/A
4:30 PM79 °FPartly sunny.6 mph61%29.86 "HgN/A
4:00 PM81 °FSprinkles. Scattered clouds.10 mph51%29.86 "HgN/A
3:00 PM84 °FPartly sunny.8 mph45%29.86 "HgN/A
2:30 PM84 °FPartly sunny.6 mph45%29.86 "HgN/A
2:00 PM84 °FScattered clouds.6 mph45%29.89 "HgN/A
1:30 PM84 °FScattered clouds.1 mph45%29.89 "HgN/A
1:00 PM84 °FScattered clouds.6 mph45%29.89 "HgN/A
12:30 PM82 °FScattered clouds.3 mph48%29.89 "HgN/A
12:00 PM82 °FScattered clouds.3 mph48%29.92 "HgN/A
11:30 AM82 °FPartly sunny.3 mph48%29.92 "HgN/A
11:00 AM82 °FPartly sunny.1 mph55%29.92 "HgN/A
10:30 AM81 °FScattered clouds.1 mph58%29.92 "HgN/A
10:00 AM77 °FSunny.1 mph69%29.92 "Hg10 mi
9:30 AM75 °FClear.1 mph74%29.92 "Hg5 mi
9:00 AM75 °FClear.1 mph74%29.92 "Hg5 mi
8:30 AM73 °FClear.1 mph78%29.92 "Hg4 mi
8:00 AM72 °FClear.1 mph83%29.92 "Hg4 mi
7:30 AM70 °FClear.1 mph88%29.92 "Hg4 mi
7:00 AM68 °FFog.3 mph94%29.92 "Hg3 mi
6:30 AM66 °FFog.3 mph94%29.92 "Hg3 mi
6:00 AM66 °FClear.3 mph94%29.92 "Hg4 mi
5:30 AM66 °FClear.1 mph94%29.92 "Hg4 mi
5:00 AM66 °FClear.1 mph94%29.89 "Hg4 mi
4:30 AM66 °FClear.3 mph94%29.89 "Hg4 mi
Weather by CustomWeather, © 2015

See weather overviewHow to use our weather pages